Flag for Germany Weather past 2 weeks in Ingolstadt, Bavaria, Germany

Now
64 °F

Partly sunny.


Feels Like: 64 °F
Forecast: 40 / 56 °F
Wind: 2 mph from North

Location: Ingolstadt Airport

Current Time: Apr 27, 2015 at 12:43:45 PM

Latest Report: Apr 27, 2015 at 11:20 AM


Visibility: N/A

Pressure: 29.59 "Hg

Humidity: 64%

Dew point: 52 °F

Location of IngolstadtLocation

Historic Weather in Ingolstadt — Graph

°F

Ingolstadt temperature yesterday

Maximum temperature yesterday: 70 °F (at 5:20 PM)
Minimum temperature yesterday: 52 °F (at 12:20 AM)
Average temperature yesterday: 59 °F

Past Weeks' High & Low Weather Summary

 TemperatureHumidityPressure
High73 °F (Apr 15, 4:20 PM)100% (Apr 24, 2:20 AM)30.45 "Hg (Apr 24, 2:20 AM)
Low32 °F (Apr 19, 3:20 AM)22% (Apr 15, 6:00 PM)29.59 "Hg (Apr 27, 5:20 AM)
Average52 °F63%30.10 "Hg
* Reported Apr 12 11:20 AM — Apr 27 11:20 AM, Ingolstadt, Weather by CustomWeather, © 2015

Note: Actual official high and low records may vary slightly from our data, if they occured in-between our weather recording intervals... More about our weather records

Advertising

Ingolstadt weather history for previous 24 hours

 ConditionsComfort  
Time TempWeatherWind HumidityBarometerVisibility
11:20 AM
Mon, Apr 27
64 °FPartly sunny.2 mph64%29.59 "HgN/A
10:20 AM61 °FPartly sunny.5 mph72%29.59 "HgN/A
9:20 AM57 °FPartly sunny.3 mph77%29.59 "HgN/A
8:20 AM54 °FScattered clouds.2 mph82%29.59 "HgN/A
7:20 AM50 °FScattered clouds.1 mph88%29.59 "HgN/A
6:20 AM45 °FFog.2 mph100%29.59 "HgN/A
5:20 AM46 °FFog.1 mph93%29.59 "HgN/A
4:20 AM46 °FCool.1 mph93%29.62 "HgN/A
3:20 AM48 °FCool.1 mph94%29.62 "HgN/A
2:20 AM50 °FCool.2 mph94%29.62 "HgN/A
1:20 AM52 °FCool.1 mph88%29.65 "HgN/A
12:20 AM54 °FCool.3 mph82%29.68 "HgN/A
11:20 PM
Sun, Apr 26
55 °FCool.3 mph77%29.68 "HgN/A
10:20 PM55 °FCool.2 mph82%29.68 "HgN/A
9:20 PM57 °FCool.1 mph72%29.68 "Hg1 mi
8:20 PM63 °FMild.2 mph59%29.68 "Hg6 mi
7:20 PM66 °FMild.3 mph52%29.71 "HgN/A
6:20 PM68 °FBroken clouds.3 mph40%29.71 "HgN/A
5:20 PM70 °FMild.3 mph40%29.74 "HgN/A
4:20 PM68 °FMild.5 mph46%29.74 "HgN/A
3:20 PM68 °FMild.2 mph49%29.77 "HgN/A
2:20 PM64 °FMild.6 mph56%29.80 "HgN/A
1:20 PM64 °FMild.6 mph60%29.83 "HgN/A
12:20 PM63 °FMild.5 mph64%29.83 "Hg5 mi
Weather by CustomWeather, © 2015

See weather overviewHow to use our weather pages